Skip Page Navigation
NASA JPL Caltech
NASA Logo - Jet Propulsion Laboratory + View the NASA Portal
+ Center for Near-Earth Object Studies
JPL Home Earth Solar System Stars & Galaxies Technology
JPL Solar System Dynamics
BODIES ORBITS EPHEMERIDES TOOLS PHYSICAL DATA DISCOVERY FAQ SITE MAP
JPL Small-Body Database Browser
Search: [ help ]  
6319 Beregovoj (1990 WJ3)
Classification: Main-belt Asteroid          SPK-ID: 2006319
Ephemeris | Orbit Diagram | Orbital Elements | Mission Design | Physical Parameters | Discovery Circumstances | Close-Approach Data ]

[ show orbit diagram ]
Orbital Elements at Epoch 2459000.5 (2020-May-31.0) TDB
Reference: JPL 30 (heliocentric ecliptic J2000)
 Element Value Uncertainty (1-sigma)   Units 
e .08386496293236778 2.9158e-08  
a 2.266867368814471 5.8632e-09 au
q 2.076756620956252 6.4741e-08 au
i 4.090399984338939 3.2593e-06 deg
node 195.3581619526613 4.001e-05 deg
peri 12.32149066598289 4.4154e-05 deg
M 87.48405047798637 1.9218e-05 deg
tp 2458697.554870280388
(2019-Aug-02.05487028)
6.632e-05 TDB
period 1246.630055457975
3.41
4.8366e-06
1.324e-08
d
yr
n .2887785341159184 1.1204e-09 deg/d
Q 2.456978116672691 6.3549e-09 au
  Orbit Determination Parameters
   # obs. used (total)      2976  
   data-arc span      25911 days (70.94 yr)  
   first obs. used      1949-11-21  
   last obs. used      2020-10-30  
   planetary ephem.      DE431  
   SB-pert. ephem.      SB431-N16  
   condition code      0  
   norm. resid. RMS      .44486  
   source      ORB  
   producer      Otto Matic  
   solution date      2020-Nov-13 03:36:42  

Additional Information
 Earth MOID = 1.07216 au 
 Jupiter MOID = 2.50208 au 
 T_jup = 3.607 
[ show covariance matrix ]

Ephemeris | Orbit Diagram | Orbital Elements | Mission Design | Physical Parameters | Discovery Circumstances | Close-Approach Data ]

Physical Parameter Table
Parameter Symbol Value Units Sigma Reference Notes
absolute magnitude H 13.6   n/a MPO384812  
diameter diameter 4.610 km 0.134 urn:nasa:pds:neowise_diameters_albedos::2.0[mainbelt] (http://adsabs.harvard.edu/abs/2011ApJ...741...68M)  
geometric albedo albedo 0.363   0.055 urn:nasa:pds:neowise_diameters_albedos::2.0[mainbelt] (http://adsabs.harvard.edu/abs/2011ApJ...741...68M)  

6319 Beregovoj (1990 WJ3)          Discovered 1990-Nov-19 by Elst, E. W. at La Silla
Reference: DISCOVERY.DBLast Updated: 2003-08-29

[ show close-approach data ]
Alternate Designations
 1990 WJ3 = 1985 FF3 = 1986 RQ1 = 1992 GY1 
Ephemeris | Orbit Diagram | Orbital Elements | Mission Design | Physical Parameters | Discovery Circumstances | Close-Approach Data ]
ABOUT SSD CREDITS/AWARDS PRIVACY/COPYRIGHT GLOSSARY LINKS
FirstGov 2020-Nov-29 02:33 UT
(server date/time)  
NASA Home Page
Site Manager:   Ryan S. Park
Webmaster  Alan B. Chamberlin